Weather in Kupanskoye

Russia / Yaroslavl Oblast     56°49′19″N   38°39′50″E
temp.,
°C
wind,
m/s
gust,
m/s
humid.,
%
clouds,
%
prec.,
mm/h
press.,
hPa
HPBL,
m
14 may, fri
fri1400:00+10s3118986 0.0 1017338
03:00+8s2697100 0.0 1018132
06:00+10s27935 0.0 1018184
09:00+15sse356766 0.0 1018707
12:00+19se466155 0.0 10171340
15:00+20se355536 0.2 10151511
18:00+16s38885 2.1 1014313
21:00+14ese3897100 4.2 1013333
15 may, sat
sat1500:00+13ese3898100 8.1 1012251
03:00+12se3798100 8.1 1011169
06:00+15sse41294100 0.8 1011331
09:00+18sse4976100 0.8 1010397
12:00+22sse5871100 1.2 10091275
15:00+18sse4108692 3.8 1008647
18:00+18ssw5108498 1.4 1008588
21:00+14s310935 2.3 1009213
16 may, sun
sun1600:00+13s411954 0.8 1009266
03:00+12s310975 0.8 1010257
06:00+13s411950 0.0 1011427
09:00+17ssw597726 0.0 1011998
12:00+19sw686251 0.8 10111632
15:00+20sw596395 1.3 10121665
18:00+18sw48775 1.1 1012744
21:00+14sw24921 1.5 101360
17 may, mon
mon1700:00+12sw25942 0.0 101492
03:00+11sw2295100 0.0 101534
06:00+13ssw1291100 0.0 101677
09:00+18sse2369100 0.0 1016494
12:00+22se2358100 0.0 10151126
15:00+23ese4559100 0.0 10141421
18:00+22e497125 0.0 1012681
21:00+18e4119159 0.6 1011251
18 may, tue
tue1800:00+15se3128935 0.0 1011227
03:00+14se3118942 0.0 1010218
06:00+16se41382100 0.0 1009354
09:00+21s476525 0.0 1010585
12:00+24sse46535 0.0 10091185
15:00+26se5104877 0.0 10081721
18:00+23se51258100 0.0 1006712
21:00+17s51094100 3.9 1008514